Starlink 32677

operational
NORAD ID: 63020 Int'l Des: 2025-032 Owner: SPXS Country: US Constellation: starlink
LEOCIRCULAR

关于 Starlink 32677

正在加载描述...

实时位置

正在加载3D地球...

即将过境

高度历史

Altitude vs Time

uPlot chart will show altitude changes over time

两行轨道根数

1 63020U 25032R 25259.99104436 .00015108 00000-0 55739-3 0 9999
2 63020 43.0032 237.1298 0000744 266.3856 93.6910 15.27581470 34047
Epoch: Sep 16, 2025 • Age: 15 hours

当前状态

高度 482.2 km
速度 7.63 km/s
星下点 13.66°N, 177.23°W
发射日期 Feb 15, 2025
运行时间 0.5 years
类型 internet

技术详情

分类 Payload
质量 730.00 kg
干质量 700.00 kg
总质量 730.00 kg
长度 0.30 m
直径 4.10 m
跨度 29.00 m
形状 Box + pan
制造商 SPXS
平台类型 Starlink V2M
阶段状态 In Orbit
所有者/国家 SPXS/US

大型星座

Loading constellations...